TimeEST,TemperatureF,Dew PointF,Humidity,Sea Level PressureIn,VisibilityMPH,Wind Direction,Wind SpeedMPH,Gust SpeedMPH,PrecipitationIn,Events,Conditions,WindDirDegrees,DateUTC
12:53 AM,32.0,23.0,69,30.22,10.0,WNW,16.1,25.3,0.00,,Clear,300,2011-12-16 05:53:00
1:40 AM,32.0,23.0,69,30.23,10.0,WNW,12.7,-,N/A,,Scattered Clouds,300,2011-12-16 06:40:00
1:53 AM,32.0,23.0,69,30.25,10.0,WNW,11.5,-,N/A,,Partly Cloudy,300,2011-12-16 06:53:00
2:53 AM,30.9,23.0,72,30.27,10.0,NW,6.9,-,N/A,,Clear,310,2011-12-16 07:53:00
3:53 AM,30.0,23.0,75,30.26,10.0,NW,5.8,-,N/A,,Clear,310,2011-12-16 08:53:00
5:53 AM,28.9,24.1,82,30.29,10.0,West,3.5,-,N/A,,Clear,270,2011-12-16 10:53:00
6:53 AM,28.9,24.1,82,30.32,10.0,West,3.5,-,N/A,,Clear,280,2011-12-16 11:53:00
7:53 AM,28.9,24.1,82,30.31,10.0,West,3.5,-,N/A,,Clear,280,2011-12-16 12:53:00
8:53 AM,28.9,25.0,85,30.33,10.0,West,4.6,-,N/A,,Clear,270,2011-12-16 13:53:00
9:53 AM,30.9,25.0,79,30.36,10.0,WSW,4.6,-,N/A,,Clear,250,2011-12-16 14:53:00
10:53 AM,32.0,26.1,79,30.38,10.0,West,6.9,-,N/A,,Clear,260,2011-12-16 15:53:00
11:53 AM,32.0,26.1,79,30.35,10.0,NW,8.1,-,N/A,,Partly Cloudy,310,2011-12-16 16:53:00
12:53 PM,34.0,26.1,73,30.31,10.0,NNW,5.8,-,N/A,,Partly Cloudy,330,2011-12-16 17:53:00
1:23 PM,35.6,26.6,70,30.30,10.0,NW,6.9,-,N/A,,Mostly Cloudy,320,2011-12-16 18:23:00
1:53 PM,35.1,25.0,67,30.32,10.0,NW,9.2,-,N/A,,Mostly Cloudy,310,2011-12-16 18:53:00
2:28 PM,35.6,24.8,65,30.28,10.0,Variable,6.9,-,N/A,,Scattered Clouds,0,2011-12-16 19:28:00
2:53 PM,34.0,24.1,67,30.29,10.0,NW,8.1,-,N/A,,Mostly Cloudy,310,2011-12-16 19:53:00
3:06 PM,33.8,24.8,70,30.27,10.0,WNW,8.1,-,N/A,,Scattered Clouds,300,2011-12-16 20:06:00
3:33 PM,33.8,24.8,70,30.27,10.0,NW,6.9,-,N/A,,Mostly Cloudy,310,2011-12-16 20:33:00
3:53 PM,34.0,24.1,67,30.29,10.0,NW,8.1,-,N/A,,Mostly Cloudy,310,2011-12-16 20:53:00
4:53 PM,33.1,25.0,72,30.30,10.0,NW,8.1,-,N/A,,Mostly Cloudy,310,2011-12-16 21:53:00
5:53 PM,33.1,24.1,70,30.31,10.0,WNW,6.9,-,N/A,,Overcast,300,2011-12-16 22:53:00
6:53 PM,33.1,24.1,70,30.32,10.0,NW,5.8,-,N/A,,Overcast,310,2011-12-16 23:53:00
7:53 PM,33.1,23.0,66,30.33,10.0,NW,6.9,-,N/A,,Overcast,320,2011-12-17 00:53:00
8:53 PM,32.0,21.9,66,30.34,10.0,NW,9.2,-,N/A,,Overcast,310,2011-12-17 01:53:00
9:39 PM,32.0,21.2,64,30.32,10.0,WNW,6.9,-,N/A,,Overcast,290,2011-12-17 02:39:00
9:53 PM,32.0,21.9,66,30.34,10.0,WNW,6.9,-,N/A,,Overcast,300,2011-12-17 02:53:00
10:53 PM,32.0,21.9,66,30.32,10.0,NW,4.6,-,N/A,,Overcast,310,2011-12-17 03:53:00
11:53 PM,30.9,21.9,69,30.33,10.0,NW,6.9,-,N/A,,Overcast,320,2011-12-17 04:53:00